Content
SEND FEEDBACK

Daily
Averages
Monthly
Summary
United States of America

KELLYVILLE, OKLAHOMA


Home > North America > United States > Oklahoma
Elevation: 780 feet     Latitude: 35 57N     Longitude: 096 13W

WEATHER
 
SELECT A DAY
Number of Records: 171,002;   Date Range: 9/4/97 - 9/3/14
 
SHARE

PRINT THIS DATA

[ ← Previous Day ]
WEATHER ALMANAC - JANUARY 31, 2013
[ Next Day → ]
[ °C ]   °F
Weather ElementAverageHighLow
Temperature32.3 °F52 °F (12:53 pm)21.9 °F (5:53 am)
Dewpoint19.4 °F27 °F (12:53 pm)9 °F (11:53 pm)
Humidity62.6 %89 % (5:53 am)35 % (11:53 am)
Barometer30.23 in30.50 in (9:53 pm)30.07 in (2:53 am)
Wind Speed6.3 mph18.4 mph (2:53 pm)
Wind Gust27.6 mph (4:53 pm)
Weather ElementAverage
Visibility9.4 mi
Wind DirectionNNE (36 °)

Weather ElementTotal
Precipitation---
Heating Degree Days28.1 (Base 65)
Averaged from 20 records on January 31, 2013
WEATHER CONDITIONS BREAKOUT
WIND DIRECTION BREAKOUT
WEATHER BY HOUR - JANUARY 31, 2013
[ °C ]   °F
Local TimeTemperatureDewpointHumidityBarometerVisibilityWind DirectionWind SpeedGust SpeedPrecipitationEventsConditions
1:53 AM24.1 °F19.9 °F84 %30.08 in7.0 miCalmClear
2:53 AM24.1 °F19.9 °F84 %30.07 in8.0 miCalmClear
3:53 AM23.0 °F19.9 °F88 %30.07 in8.0 miCalmClear
4:53 AM23.0 °F19.9 °F88 %30.07 in8.0 miCalmClear
5:53 AM21.9 °F19.0 °F89 %30.07 in8.0 miCalmClear
6:53 AM21.9 °F19.0 °F89 %30.10 in10.0 miCalmClear
7:53 AM24.1 °F19.9 °F84 %30.11 in9.0 miCalmClear
8:53 AM33.1 °F24.1 °F70 %30.12 in10.0 miSSW (210°)5.8 mphClear
9:53 AM42.1 °F23.0 °F47 %30.15 in10.0 miCalmClear
10:53 AM48.0 °F23.0 °F37 %30.18 in10.0 miWNW (300°)5.8 mphClear
11:53 AM51.1 °F24.1 °F35 %30.15 in10.0 miNE (40°)10.4 mphClear
12:53 PM52.0 °F27.0 °F38 %30.16 in10.0 miNNE (20°)12.7 mphClear
2:53 PM46.0 °F25.0 °F44 %30.23 in10.0 miNNE (20°)18.4 mph25.3 mphClear
3:53 PM41.0 °F23.0 °F49 %30.27 in10.0 miNorth (10°)11.5 mph23.0 mphClear
4:53 PM35.1 °F21.9 °F59 %30.33 in10.0 miNNE (20°)16.1 mph27.6 mphPartly Cloudy
6:53 PM30.0 °F17.1 °F59 %30.43 in10.0 miNNE (30°)6.9 mphClear
7:53 PM28.9 °F14.0 °F54 %30.47 in10.0 miNNE (20°)6.9 mphClear
8:53 PM28.0 °F10.0 °F47 %30.49 in10.0 miNorth (10°)9.2 mph16.1 mphClear
9:53 PM26.1 °F10.0 °F51 %30.50 in10.0 miNorth (10°)9.2 mph17.3 mphClear
11:53 PM23.0 °F9.0 °F55 %30.48 in10.0 miNNE (30°)13.8 mphClear
Hourly data recorded from KRVS, located miles away from Kellyville, Oklahoma







STORIES FROM OUR PARTNERS